Weather in Novyye Bobovichi

Russia / Bryansk Oblast     52°37′17″N   31°44′06″E
temp.,
°C
wind,
m/s
gust,
m/s
humid.,
%
clouds,
%
prec.,
mm/h
press.,
hPa
HPBL,
m
15 may, sat
sat1500:00+11s34933 0.0 100757
03:00+10s36965 0.0 1007111
06:00+10sse38957 0.0 1007180
09:00+13s5109097 0.3 1008484
12:00+16sw5781100 1.8 10081133
15:00+16sw5881100 2.7 1009811
18:00+17sw467337 0.2 10091033
21:00+12s38927 0.8 1010147
16 may, sun
sun1600:00+10s37945 0.0 1010110
03:00+10s36969 0.0 1011113
06:00+10ssw369795 0.0 1012156
09:00+15sw238322 0.0 1013447
12:00+19ssw336351 0.1 10131345
15:00+19ssw346481 0.3 10121028
18:00+20sse2464100 0.0 1012914
21:00+15se3380100 0.0 101229
17 may, mon
mon1700:00+13ese3388100 0.0 101130
03:00+13ese368766 0.0 101199
06:00+13e4108952 0.0 1009217
09:00+16e4787100 0.9 1008312
12:00+21ene246898 0.8 10051064
15:00+24se4658100 0.8 10031611
18:00+22sse267450 0.8 1001698
21:00+16nw1296100 1.1 100155
18 may, tue
tue1800:00+15ese3109869 1.1 999289
03:00+15sse51095100 1.4 998520
06:00+13sw71197100 0.4 1000720
09:00+15ssw5890100 0.5 1003594
12:00+17sw567884 0.9 10051004
15:00+21w45499 1.3 10052081
18:00+17w4770100 0.1 1005253
21:00+14wnw4986100 0.1 1006328
19 may, wed
wed1900:00+12w4997100 1.6 1007432
03:00+12wnw2697100 6.8 1007275
06:00+11w4996100 0.1 1007343
09:00+13wnw6984100 0.1 1008645
12:00+17w686131 0.0 10091478
15:00+18wnw685750 0.4 10091791
18:00+17wnw46628 0.0 10091374
21:00+13sw1179100 0.0 101010